User: anonymous   Login
Location: Unspecified
(0.0000°N, 0.0000°E)
Time: 08:58:32
(UTC+00:00)
Language:

TIANMU-1 13 - Orbit

View from above orbital plane
View from above orbital plane
View from above satellite
View from above satellite

Ground track
Ground track

The orbit is defined by the following mean orbital elements,

1 58647U          26145.57457735 +.00000000 +00000-0 +19793-3 0 00006
2 58647  97.3477 167.5197 0008479  57.0800 303.1253 15.26532467    01
Epoch (UTC): 25 May 2026 13:47:23
Eccentricity: 0.0008479
inclination: 97.3477°
perigee height: 480 km
apogee height: 492 km
right ascension of ascending node: 167.5197°
argument of perigee: 57.0800°
revolutions per day: 15.26532467
mean anomaly at epoch: 303.1253°

The dashed part of the orbit path shows where the satellite is in the earth's shadow,  

DLR